Temp
60 60 60 60 59 60 60 60 59 59 58 58 59 59 60 61 60 59 58 58 58 58 58 58 59 59 56 53 57 72 68 68 69 70 68 67 62 60 57 60 61 59 63 67 68 63 58
59 59 59 59 59 59 59 59 59 58 58 58 58 58 59 59 60 59 58 57 57 57 57 58 59 59 52 46 71 75 70 68 70 67 67 67 66 67 63 62 58 63 64 64 68 64 63
59 59 59 59 59 58 58 58 58 58 58 58 58 57 58 58 58 59 58 57 57 57 57 58 59 58 52 51 67 68 72 68 69 70 67 70 69 64 65 61 65 65 58 62 64 63 60
59 59 59 59 58 58 58 58 58 58 58 58 58 57 57 57 57 57 57 57 57 57 58 58 58 56 48 67 64 65 66 66 71 73 72 73 72 68 63 64 63 58 55 49 61 62 61
59 59 59 59 58 58 58 58 57 57 58 57 57 57 56 56 56 56 56 56 57 58 58 58 54 50 46 67 64 69 70 68 72 73 72 79 70 63 61 53 48 49 45 49 55 63 61
59 58 58 58 58 58 58 58 57 57 57 57 57 57 56 56 55 55 55 56 58 57 57 61 59 48 56 60 69 72 69 72 69 68 67 65 59 54 51 47 39 44 46 42 49 58 58
58 58 58 58 58 58 58 58 58 57 57 57 57 57 56 56 55 55 53 52 50 49 52 52 53 53 61 69 73 69 71 69 68 63 54 59 51 46 49 52 55 54 51 50 55 62 57
57 57 57 57 57 57 58 58 57 57 57 57 56 56 56 56 55 55 52 45 50 50 41 57 59 60 64 67 60 66 71 62 60 53 57 53 48 57 58 57 55 54 52 52 57 62 59
56 56 56 57 57 57 57 57 57 56 56 56 56 56 56 55 55 51 48 51 60 57 42 52 60 60 61 64 57 60 66 62 57 53 53 51 55 62 59 56 54 55 52 53 54 58 56
55 55 55 55 56 56 56 56 56 56 56 55 55 55 55 54 49 49 48 57 57 58 37 46 54 59 63 64 55 69 69 64 58 54 55 53 61 59 56 55 57 50 60 59 57 50 43
54 55 55 55 55 55 55 55 55 55 55 55 55 55 55 55 46 45 54 57 59 51 23 54 58 69 64 59 61 61 70 62 55 56 55 51 54 55 54 56 60 55 60 59 57 50 45
54 54 54 54 54 54 54 54 54 54 55 55 55 55 54 50 46 49 55 56 51 37 25 47 61 57 55 58 60 63 61 65 63 56 57 55 61 58 57 63 62 64 58 55 52 47 37
53 53 53 54 53 54 54 54 54 54 54 55 55 54 53 54 43 50 53 48 34 25 50 48 54 58 55 52 55 57 54 52 49 43 45 54 56 61 62 56 60 58 49 39 36 34 33
53 53 53 53 53 53 54 54 53 54 54 54 54 53 53 53 50 50 48 40 28 40 42 54 54 54 50 54 54 54 51 46 52 50 46 43 39 55 61 58 54 53 50 37 30 30 37
53 53 53 53 53 53 53 53 54 53 54 54 54 49 48 49 50 49 40 31 33 40 49 47 51 46 46 53 53 52 48 49 52 54 44 42 44 59 61 63 60 53 46 54 40 39 33
52 52 52 52 52 52 53 53 53 53 53 54 47 46 46 49 49 46 35 33 39 48 50 49 40 46 41 44 47 47 47 54 54 57 58 51 42 56 61 61 61 58 58 45 41 32 30
52 52 52 52 52 52 52 53 53 53 53 53 46 40 49 50 49 38 29 34 41 48 49 44 43 43 44 44 47 46 48 55 56 57 58 55 48 49 55 52 53 52 50 50 48 41 32
51 51 51 51 52 52 52 52 52 53 53 50 44 35 47 52 35 36 31 39 45 44 48 45 46 45 43 45 44 45 46 52 57 56 51 56 49 43 49 58 60 57 53 52 40 39 39
50 51 51 51 52 52 52 52 52 52 53 47 40 39 47 47 30 31 38 38 42 41 43 44 43 46 47 43 38 45 48 57 55 55 46 51 46 35 42 51 57 52 54 54 50 44 37
50 50 51 51 51 51 51 52 52 52 53 47 36 32 39 40 40 36 35 35 36 44 41 43 41 44 42 40 45 41 44 53 55 55 50 52 48 44 39 45 51 48 53 55 52 35 38
50 50 50 50 51 51 51 51 51 52 52 47 36 34 39 32 33 36 39 39 35 35 44 45 41 41 39 34 38 40 45 49 54 51 52 49 39 46 50 54 55 54 56 54 50 48 42
50 50 50 50 50 50 51 51 51 51 51 44 33 35 40 36 40 36 37 35 36 38 40 38 37 42 43 37 39 36 42 44 45 50 48 47 38 41 43 52 53 51 53 55 55 53 51
49 50 50 50 50 50 51 51 51 51 50 43 44 42 43 39 37 34 34 35 38 41 43 45 43 41 40 43 47 47 48 48 48 48 44 44 39 36 34 46 47 39 50 53 52 54 54
49 49 50 50 50 50 51 51 51 51 50 46 45 43 37 33 36 35 39 40 39 41 38 45 46 42 47 54 49 46 45 45 44 45 49 40 38 37 31 37 33 49 58 58 54 56 56
49 49 50 50 50 50 50 51 51 50 51 46 46 43 38 33 37 38 39 40 41 43 41 42 46 50 52 47 39 36 30 35 39 44 44 46 38 32 30 32 42 47 53 52 51 53 58
49 49 50 50 50 50 50 50 50 50 50 46 45 45 42 36 35 43 39 41 36 36 37 41 50 50 46 41 35 28 27 34 34 38 45 42 41 36 32 29 27 43 54 60 57 41 57
49 49 50 50 49 49 50 50 50 50 51 47 43 46 41 34 39 44 39 38 43 39 36 39 43 43 47 32 29 26 28 39 31 31 34 32 32 31 31 30 36 48 52 57 43 43 51
48 49 49 49 49 49 49 49 50 50 50 47 43 45 41 33 38 47 48 41 43 43 36 40 40 39 35 31 30 29 25 34 33 38 35 33 31 30 32 31 31 51 52 45 47 48 52
49 49 49 49 49 49 49 49 49 50 50 50 42 45 46 39 38 47 50 50 53 52 46 43 41 42 43 36 32 32 29 27 32 29 44 35 39 34 38 38 50 52 52 54 53 50 53
MSLP
1023.27 1023.32 1023.00 1022.83 1022.36 1022.26 1021.62 1021.69 1021.72 1021.97 1021.93 1021.80 1021.47 1021.49 1020.68 1020.20 1020.14 1019.86 1019.68 1019.22 1019.03 1018.80 1018.42 1017.87 1017.31 1016.98 1016.25 1015.37 1012.09 1009.44 1009.59 1010.05 1010.10 1010.37 1010.31 1010.20 1010.44 1010.48 1010.38 1010.14 1010.12 1010.14 1009.39 1008.79 1008.02 1008.76 1009.47
1023.01 1022.99 1022.78 1022.78 1022.18 1021.94 1021.54 1021.39 1022.00 1021.90 1021.78 1021.65 1021.36 1021.21 1020.53 1020.00 1019.77 1019.48 1019.30 1018.74 1018.46 1018.40 1018.20 1017.70 1017.30 1017.07 1016.70 1015.00 1010.15 1009.42 1009.45 1009.97 1010.17 1010.17 1010.05 1010.00 1009.85 1009.95 1009.99 1009.81 1009.95 1009.45 1009.14 1008.61 1007.98 1008.41 1009.22
1022.58 1022.50 1022.49 1022.45 1022.14 1021.88 1021.64 1021.76 1021.67 1021.68 1021.51 1021.45 1021.09 1020.92 1020.47 1020.01 1019.54 1019.21 1018.83 1018.23 1017.92 1017.87 1017.70 1017.40 1017.19 1016.97 1016.12 1013.25 1010.14 1009.93 1009.84 1009.57 1009.87 1009.79 1009.84 1009.27 1009.38 1010.20 1009.62 1009.51 1009.38 1009.29 1009.12 1008.40 1007.89 1007.97 1009.13
1022.40 1022.07 1021.98 1022.28 1021.66 1021.70 1021.48 1021.49 1021.53 1021.46 1021.06 1021.05 1020.90 1020.77 1020.41 1019.94 1019.51 1019.03 1018.45 1017.71 1017.34 1017.14 1017.03 1016.82 1016.70 1016.65 1014.53 1010.72 1010.03 1009.90 1009.67 1009.41 1009.12 1009.31 1009.12 1008.95 1009.18 1009.59 1009.45 1009.35 1009.43 1009.71 1009.43 1009.18 1007.73 1008.11 1008.55
1021.96 1021.66 1021.68 1021.87 1021.21 1021.32 1021.17 1021.15 1021.20 1020.85 1020.77 1020.75 1020.42 1020.33 1020.03 1019.70 1019.23 1018.80 1017.88 1017.12 1016.34 1015.95 1016.18 1016.16 1016.45 1016.28 1013.17 1010.10 1009.61 1008.04 1008.64 1008.61 1008.40 1008.56 1008.63 1008.60 1008.99 1009.34 1009.55 1009.99 1010.54 1010.32 1010.02 1009.60 1008.73 1007.44 1008.06
1021.39 1021.36 1021.35 1021.25 1021.09 1020.95 1020.78 1020.69 1020.64 1020.44 1020.44 1020.26 1020.08 1020.07 1019.88 1019.53 1019.03 1018.48 1017.63 1016.51 1014.73 1015.02 1015.41 1015.61 1015.58 1015.91 1011.81 1009.39 1008.14 1007.53 1007.41 1007.51 1008.09 1008.34 1008.68 1008.77 1009.08 1009.59 1010.21 1010.79 1010.64 1010.31 1010.07 1009.42 1008.93 1007.95 1007.59
1021.01 1020.93 1020.92 1020.84 1020.75 1020.58 1020.35 1020.13 1020.06 1020.05 1020.07 1019.86 1019.71 1019.83 1019.73 1019.50 1018.97 1018.44 1017.79 1016.60 1015.32 1015.38 1014.93 1013.99 1013.43 1012.44 1009.89 1008.68 1007.85 1007.12 1007.11 1007.35 1007.93 1008.44 1008.80 1008.88 1009.39 1009.49 1009.97 1010.16 1009.79 1009.84 1009.79 1009.34 1008.25 1007.45 1007.74
1020.70 1020.62 1020.50 1020.42 1020.31 1020.14 1019.89 1019.64 1019.61 1019.69 1019.67 1019.47 1019.43 1019.47 1019.52 1019.29 1018.86 1018.40 1018.20 1017.83 1016.83 1017.27 1015.14 1012.69 1011.87 1010.80 1009.46 1009.32 1008.80 1007.11 1006.92 1007.42 1007.71 1008.32 1008.89 1009.30 1008.62 1008.83 1009.41 1009.72 1009.66 1009.49 1009.19 1008.48 1007.79 1006.76 1007.13
1020.19 1020.16 1019.99 1019.90 1019.82 1019.67 1019.41 1019.26 1019.20 1019.25 1019.25 1019.14 1019.05 1019.15 1019.23 1019.02 1018.61 1018.17 1017.93 1017.30 1016.38 1016.72 1015.47 1010.86 1009.55 1008.76 1007.85 1008.44 1007.90 1006.91 1007.03 1006.98 1007.17 1008.15 1008.60 1008.55 1007.85 1008.04 1009.00 1008.95 1009.05 1008.63 1008.44 1007.92 1007.37 1006.61 1006.82
1019.60 1019.50 1019.45 1019.38 1019.32 1019.11 1018.93 1018.87 1018.77 1018.75 1018.73 1018.66 1018.65 1018.78 1018.89 1018.94 1018.81 1018.06 1017.32 1016.61 1016.45 1016.24 1014.77 1009.88 1007.64 1005.77 1005.84 1006.43 1006.23 1005.48 1005.83 1006.67 1006.91 1007.22 1008.19 1008.35 1007.62 1007.80 1008.13 1008.20 1008.04 1008.04 1006.92 1007.03 1006.82 1007.02 1007.55
1018.94 1018.89 1018.81 1018.71 1018.66 1018.60 1018.48 1018.33 1018.19 1018.13 1018.16 1018.14 1018.21 1018.34 1018.54 1018.64 1018.31 1018.12 1016.78 1016.28 1015.51 1015.55 1013.19 1007.34 1005.35 1003.59 1004.06 1005.04 1004.27 1003.95 1004.60 1005.85 1006.20 1006.41 1007.37 1007.16 1006.76 1006.99 1006.93 1006.93 1006.97 1006.92 1006.25 1006.41 1006.71 1007.08 1007.58
1018.26 1018.22 1018.15 1018.00 1017.92 1017.86 1017.80 1017.68 1017.60 1017.54 1017.49 1017.51 1017.70 1017.94 1018.12 1018.31 1018.47 1017.78 1017.23 1016.31 1015.49 1015.10 1011.00 1006.91 1004.16 1003.78 1004.52 1004.94 1003.94 1003.50 1004.21 1004.94 1005.44 1006.56 1006.82 1006.74 1006.27 1006.30 1006.05 1005.77 1006.00 1005.99 1005.97 1006.49 1007.05 1007.72 1008.25
1017.55 1017.49 1017.39 1017.24 1017.15 1017.07 1017.05 1016.96 1016.94 1016.86 1016.92 1017.00 1017.17 1017.38 1017.78 1017.74 1017.87 1017.49 1017.24 1016.56 1015.78 1013.16 1008.86 1006.39 1004.56 1003.74 1003.91 1004.53 1004.39 1004.04 1004.38 1005.03 1005.35 1006.38 1006.49 1006.68 1005.94 1005.65 1005.63 1005.62 1005.19 1005.76 1006.30 1007.68 1008.44 1008.91 1008.80
1016.75 1016.59 1016.48 1016.43 1016.31 1016.27 1016.21 1016.18 1016.25 1016.22 1016.29 1016.37 1016.58 1016.84 1017.09 1016.98 1017.30 1017.63 1017.50 1016.71 1014.19 1010.56 1008.78 1006.66 1005.59 1004.65 1004.47 1004.31 1004.41 1004.30 1004.65 1005.06 1005.47 1005.64 1005.99 1006.27 1005.73 1005.04 1004.43 1004.77 1004.75 1005.21 1006.05 1007.80 1008.78 1009.80 1009.49
1015.71 1015.56 1015.53 1015.45 1015.41 1015.35 1015.32 1015.35 1015.33 1015.40 1015.50 1015.67 1016.02 1016.57 1016.84 1016.35 1017.08 1017.64 1017.82 1015.37 1012.04 1010.57 1009.06 1007.82 1006.59 1005.86 1005.35 1004.73 1004.40 1004.51 1004.72 1004.73 1004.85 1005.42 1005.81 1005.85 1005.31 1004.05 1003.66 1003.97 1004.24 1004.54 1005.47 1006.20 1008.39 1010.18 1010.15
1014.61 1014.48 1014.43 1014.37 1014.38 1014.39 1014.39 1014.43 1014.50 1014.59 1014.77 1014.98 1015.54 1015.95 1015.83 1015.95 1016.77 1017.56 1017.17 1013.86 1012.01 1010.59 1009.55 1008.98 1008.15 1007.20 1006.57 1006.17 1005.61 1004.98 1004.62 1003.97 1004.47 1004.59 1005.13 1005.17 1005.00 1003.92 1003.34 1003.48 1003.32 1003.56 1004.36 1006.15 1007.94 1009.46 1009.86
1013.50 1013.41 1013.28 1013.15 1013.16 1013.27 1013.39 1013.47 1013.59 1013.74 1014.01 1014.31 1014.76 1015.06 1014.62 1015.60 1016.64 1017.17 1014.90 1013.53 1012.65 1011.71 1011.08 1010.34 1009.14 1008.52 1007.87 1007.38 1006.68 1006.04 1005.28 1004.48 1003.92 1003.66 1003.96 1004.88 1005.19 1004.38 1003.78 1002.73 1002.94 1003.35 1003.76 1004.80 1006.31 1007.83 1008.59
1012.24 1012.13 1011.98 1011.88 1011.91 1012.03 1012.23 1012.44 1012.60 1012.87 1013.25 1013.83 1013.56 1013.95 1014.23 1014.83 1015.96 1014.76 1013.09 1013.02 1012.68 1012.13 1011.48 1011.11 1010.08 1009.83 1009.29 1008.61 1007.70 1007.01 1005.93 1005.29 1004.70 1004.27 1004.15 1004.11 1004.45 1004.50 1003.30 1002.76 1002.45 1002.38 1002.89 1003.97 1005.58 1007.25 1007.59
1010.82 1010.71 1010.55 1010.48 1010.54 1010.66 1010.90 1011.16 1011.49 1011.85 1012.26 1012.71 1012.73 1013.42 1013.86 1013.77 1013.47 1012.61 1013.00 1013.13 1013.14 1012.62 1011.82 1011.32 1010.61 1009.75 1009.59 1009.60 1009.13 1007.58 1006.35 1005.19 1004.97 1005.06 1005.55 1005.35 1004.33 1004.79 1003.33 1002.60 1001.95 1002.25 1002.61 1003.15 1004.28 1005.52 1006.47
1009.26 1009.13 1008.97 1008.96 1009.03 1009.20 1009.44 1009.73 1010.17 1010.62 1011.13 1012.13 1012.68 1012.66 1012.86 1012.80 1011.48 1012.24 1012.72 1012.54 1012.50 1012.48 1012.32 1011.98 1011.15 1010.67 1010.25 1009.80 1009.52 1008.14 1007.19 1006.20 1005.47 1005.51 1005.87 1005.47 1005.18 1004.24 1003.03 1002.75 1002.19 1001.95 1002.00 1002.38 1003.36 1004.66 1005.17
1007.55 1007.32 1007.31 1007.36 1007.46 1007.67 1007.93 1008.25 1008.71 1009.29 1010.01 1010.99 1011.41 1010.58 1010.12 1010.07 1010.62 1011.64 1011.82 1011.19 1011.40 1011.72 1011.69 1011.15 1010.85 1010.42 1010.78 1009.85 1009.20 1008.32 1008.16 1007.18 1006.20 1006.41 1006.62 1006.94 1006.58 1005.46 1003.79 1002.88 1002.29 1001.43 1001.22 1001.74 1002.42 1003.11 1003.23
1005.57 1005.52 1005.55 1005.59 1005.74 1005.99 1006.29 1006.67 1007.18 1007.90 1008.91 1009.49 1009.62 1009.41 1009.39 1009.21 1009.94 1011.09 1010.91 1009.02 1010.19 1011.11 1011.08 1010.81 1010.45 1009.84 1009.62 1009.10 1009.94 1009.16 1008.74 1008.10 1007.40 1006.93 1006.94 1008.22 1007.77 1006.56 1004.33 1003.07 1002.17 1001.25 1000.75 1000.52 1001.00 1001.50 1001.77
1003.67 1003.63 1003.65 1003.76 1003.95 1004.18 1004.51 1004.97 1005.55 1006.34 1007.61 1007.51 1008.19 1008.47 1008.08 1008.13 1009.09 1009.55 1006.19 1008.84 1009.99 1010.88 1010.15 1009.84 1009.78 1009.72 1009.11 1009.28 1009.11 1008.71 1008.16 1007.84 1007.61 1007.51 1007.33 1008.39 1009.44 1008.27 1005.61 1003.60 1002.61 1001.42 999.11 1000.06 1000.37 1000.68 1000.99
1001.73 1001.69 1001.70 1001.83 1002.10 1002.42 1002.81 1003.26 1003.89 1004.75 1005.60 1006.07 1006.50 1007.24 1007.80 1006.83 1007.22 1004.60 1007.46 1008.98 1009.32 1009.44 1009.39 1008.93 1008.91 1009.27 1008.44 1008.34 1008.64 1008.73 1008.40 1008.12 1007.96 1007.81 1007.81 1008.93 1009.55 1009.51 1007.42 1005.16 1002.99 999.94 999.68 999.56 999.83 1000.02 1000.20
999.81 999.80 999.85 1000.00 1000.35 1000.77 1001.33 1001.91 1002.59 1003.33 1004.03 1004.84 1005.51 1005.89 1006.19 1005.93 1005.57 1006.72 1006.55 1007.51 1008.64 1008.85 1008.65 1008.47 1008.44 1008.59 1008.37 1008.60 1009.07 1009.02 1008.66 1008.48 1008.03 1008.05 1008.14 1008.40 1009.20 1009.58 1009.79 1006.66 1003.81 1001.04 1000.15 999.83 999.76 999.49 999.67
998.01 998.04 998.19 998.43 998.83 999.34 999.93 1000.58 1001.28 1002.02 1002.84 1003.75 1004.05 1005.07 1005.70 1005.72 1003.70 1005.41 1006.25 1006.86 1007.35 1008.01 1008.53 1007.74 1008.13 1007.99 1008.43 1008.83 1008.98 1009.04 1008.89 1008.15 1008.00 1008.33 1008.75 1009.18 1008.89 1009.17 1009.09 1008.50 1006.06 1002.41 1000.44 999.59 999.68 1000.20 999.78
996.18 996.16 996.27 996.56 997.01 997.60 998.35 999.14 999.97 1000.87 1001.81 1002.80 1003.61 1004.72 1005.43 1005.49 1004.33 1004.40 1004.32 1005.00 1006.46 1007.08 1007.19 1007.42 1007.47 1007.96 1008.11 1008.80 1009.38 1009.43 1008.84 1008.17 1007.95 1007.83 1008.64 1009.10 1009.21 1008.85 1008.80 1007.85 1006.00 1003.52 1001.84 999.95 1000.27 1001.38 1000.66
994.24 994.08 994.21 994.55 995.13 995.73 996.49 997.50 998.57 999.72 1000.90 1002.17 1002.84 1004.00 1004.92 1005.37 1004.41 1003.44 1003.50 1003.68 1004.83 1005.40 1005.92 1006.38 1007.23 1006.76 1007.86 1008.57 1009.07 1008.99 1008.56 1007.97 1007.81 1007.29 1007.27 1007.92 1008.43 1008.40 1007.58 1006.92 1004.91 1003.75 1002.43 1000.74 1001.72 1001.56 1000.96
992.80 992.74 992.81 993.08 993.51 994.11 995.05 996.10 997.23 998.48 999.78 1001.44 1002.68 1003.47 1004.52 1005.40 1004.81 1004.07 1002.78 1002.69 1002.42 1003.14 1004.19 1005.33 1005.43 1005.41 1006.07 1006.96 1007.84 1008.10 1008.28 1008.17 1007.65 1007.17 1006.40 1006.77 1005.94 1006.10 1006.06 1004.41 1002.85 1002.31 1002.66 1001.22 1001.29 1001.54 1000.64
Wind_Speed
11 13 12 12 11 11 10 10 10 12 12 13 14 15 13 12 14 12 13 14 16 17 18 19 19 17 8 3 13 3 7 4 5 5 5 5 1 3 4 4 5 6 7 9 5 9 5
13 13 13 13 12 13 13 11 12 11 12 13 13 16 15 14 13 13 13 14 15 15 15 17 17 15 1 8 6 6 6 4 4 4 4 6 6 5 6 4 1 3 7 8 7 5 10
14 14 14 13 13 12 12 13 13 12 11 12 13 14 15 15 15 15 15 16 17 15 15 17 15 7 8 20 5 4 4 3 3 5 5 6 3 2 4 6 0 5 6 9 6 2 6
14 15 14 14 12 12 11 11 12 13 13 13 12 13 14 14 15 16 17 18 19 18 17 17 10 3 11 9 7 13 12 7 8 10 9 7 5 5 4 1 8 5 3 4 8 1 4
16 15 15 15 13 13 12 12 13 13 13 14 13 13 14 14 15 17 19 20 23 23 14 8 2 3 13 10 5 11 14 7 4 7 7 8 4 6 1 4 5 2 6 5 9 4 7
16 16 17 17 14 14 14 13 13 13 12 12 13 13 12 14 16 18 19 22 24 12 5 6 3 2 8 6 4 5 7 9 4 4 3 6 3 3 3 4 7 6 4 2 6 5 4
17 18 18 18 18 19 19 18 16 14 14 12 11 12 12 12 15 16 10 8 5 2 1 8 8 8 13 3 7 4 1 7 4 3 8 3 4 10 11 10 6 6 6 10 11 8 4
17 19 18 19 20 20 20 19 16 15 15 14 11 11 11 11 13 14 4 3 5 4 12 14 18 24 24 7 11 14 4 7 7 9 5 4 13 12 8 9 8 9 11 16 8 5 6
18 19 19 20 21 21 19 19 17 16 14 12 11 11 10 11 13 7 4 8 6 8 5 8 18 16 17 13 17 21 6 6 5 7 8 12 6 14 11 12 9 13 12 12 8 4 3
19 18 19 20 21 20 19 19 18 17 15 13 10 10 9 9 7 4 4 5 9 8 5 9 8 12 13 12 10 25 11 8 6 13 9 9 15 12 9 12 11 13 13 9 4 3 4
20 18 19 20 20 18 18 18 18 18 16 13 10 10 9 7 4 3 8 15 15 2 6 8 7 5 9 17 7 8 14 7 13 12 8 9 8 15 15 19 11 14 11 8 7 5 3
19 20 21 22 20 19 19 18 18 17 17 15 12 11 10 4 1 6 10 15 3 2 11 7 5 7 10 11 4 3 9 5 5 6 11 10 5 5 8 10 13 11 3 1 3 1 1
19 21 22 22 20 19 20 19 18 17 17 16 14 13 9 4 4 3 6 6 2 8 4 5 4 5 8 10 8 4 6 12 10 8 12 13 20 15 7 8 8 5 5 2 3 3 7
22 22 23 23 21 20 20 19 18 17 17 17 14 12 6 7 3 3 4 5 13 5 12 4 5 6 2 5 6 4 5 5 8 3 5 9 7 14 8 16 8 8 9 7 7 4 4
25 23 23 22 22 21 20 20 19 17 17 17 14 3 3 5 5 1 1 11 7 6 5 8 15 3 3 3 5 7 8 9 8 13 7 7 8 8 6 7 9 6 5 8 8 3 2
27 24 24 23 22 22 21 19 20 19 17 17 4 4 6 8 7 3 5 19 7 5 7 8 2 3 3 5 5 2 7 5 7 13 12 5 4 6 15 4 9 11 8 4 2 6 4
26 26 26 24 23 23 21 21 20 19 17 17 5 4 6 11 5 4 12 15 15 18 12 5 2 5 3 5 4 4 4 8 7 12 14 10 6 10 4 6 15 3 4 3 6 6 6
28 26 27 26 25 24 22 21 21 20 18 13 4 5 7 12 8 5 19 12 5 6 12 12 7 3 2 5 4 3 4 5 5 4 7 12 9 13 22 10 4 6 10 9 6 4 3
29 28 28 27 26 25 24 23 22 22 21 3 3 3 5 10 14 18 11 16 18 3 4 3 6 6 7 3 5 5 4 7 5 5 3 5 6 3 7 7 10 7 5 6 4 5 9
29 30 29 28 27 26 25 24 24 23 23 10 4 6 5 10 7 16 18 19 19 9 19 16 13 8 3 4 7 9 7 8 6 4 4 1 5 11 18 4 5 5 5 7 9 6 6
31 30 29 29 28 27 26 26 25 24 23 11 6 6 5 10 17 13 16 9 21 19 14 8 9 22 7 7 2 12 6 8 2 4 6 8 5 10 10 15 14 11 14 12 10 6 9
32 30 30 29 28 28 28 28 27 27 26 12 7 6 5 3 12 21 21 24 25 16 11 14 18 7 15 18 9 12 13 8 6 2 5 4 5 11 9 11 15 17 12 16 16 7 6
32 31 30 29 29 28 28 28 28 28 27 10 7 4 5 10 11 15 32 16 17 17 12 22 13 15 16 9 8 7 10 8 6 4 3 5 3 6 7 4 4 10 22 13 6 5 6
31 30 29 28 28 28 27 25 26 29 31 10 4 5 5 7 18 26 9 20 19 18 21 14 12 14 8 6 2 1 2 1 1 3 2 7 5 2 5 5 15 13 6 8 13 11 8
29 28 27 26 25 26 25 25 24 25 33 12 5 6 7 11 14 18 21 14 17 18 20 18 18 14 9 7 4 6 2 3 7 6 7 4 5 3 6 4 8 9 6 5 10 20 8
26 27 27 26 26 26 26 26 26 26 26 11 5 3 2 4 21 14 15 16 11 14 15 20 16 5 3 3 3 8 5 4 5 6 8 8 6 4 5 3 7 6 8 7 2 5 5
27 28 28 28 28 29 29 28 28 28 28 12 4 13 2 2 3 13 14 17 12 9 5 4 9 9 7 3 4 4 6 3 4 7 7 3 2 6 5 4 9 10 16 5 7 7 10
26 25 27 27 27 28 29 30 30 29 29 19 4 13 8 2 4 14 13 9 10 14 9 5 3 3 3 7 4 5 4 6 3 2 7 8 7 5 4 3 10 6 14 5 2 3 5
18 18 18 21 23 25 27 28 29 30 30 26 5 10 9 4 4 8 4 3 26 23 13 6 6 6 7 4 3 2 2 2 7 7 4 5 8 5 6 7 6 8 5 3 4 6 3
Wind_Direction
313 311 311 314 323 319 327 327 323 322 316 314 317 310 304 308 311 313 317 318 318 322 325 328 327 330 348 312 252 253 160 152 147 162 212 178 199 192 229 223 343 191 282 303 252 82 88
313 312 309 307 314 320 328 324 315 304 301 305 307 308 312 309 301 300 299 300 305 308 312 319 321 327 238 262 262 269 161 133 232 184 215 168 211 192 280 248 140 291 279 266 286 136 146
309 311 312 313 312 304 306 307 306 299 298 297 303 305 309 313 308 304 300 297 298 298 300 301 308 308 259 250 258 327 331 229 205 195 230 218 202 159 283 317 154 281 324 328 294 239 138
297 300 301 296 306 305 297 292 290 296 302 301 302 301 304 309 313 307 300 300 295 292 294 290 295 263 254 255 254 255 257 260 235 229 227 265 238 251 220 247 353 337 357 335 282 68 200
305 301 300 299 300 293 293 292 286 290 293 296 302 303 303 306 310 306 304 300 292 290 279 261 190 195 263 293 232 246 208 215 225 217 233 255 243 205 355 73 352 355 251 242 300 239 150
301 301 301 302 303 303 299 293 291 290 284 288 294 298 301 307 310 311 311 301 293 294 220 154 218 321 254 256 256 255 187 174 198 233 260 203 82 187 40 105 218 217 228 281 250 241 126
300 298 296 297 295 293 292 291 289 288 284 280 286 291 293 301 310 316 331 334 5 44 322 206 192 249 289 279 290 288 193 139 158 198 193 212 154 218 210 211 233 266 262 266 269 235 139
298 297 298 298 299 296 291 291 287 281 281 276 273 280 284 295 306 311 328 275 274 100 296 259 248 246 256 286 302 287 144 172 155 206 154 228 224 226 215 233 233 255 266 278 263 218 157
293 291 288 291 293 291 289 286 286 284 278 275 272 271 273 290 309 306 215 249 289 333 258 255 234 237 231 204 233 256 184 199 172 166 205 214 212 204 222 248 243 254 249 258 216 227 316
290 289 292 294 290 288 287 284 281 278 272 266 258 257 261 288 307 291 251 321 322 301 274 271 221 238 210 193 237 223 181 172 209 196 200 230 234 240 229 243 238 259 252 253 235 118 216
289 285 289 291 288 282 280 277 274 273 265 257 249 247 243 208 293 301 328 325 316 156 303 253 214 209 167 175 166 204 194 144 205 199 158 228 177 204 224 235 237 255 215 229 243 223 134
286 288 287 287 281 281 277 273 267 264 264 254 239 231 224 272 190 254 298 302 299 123 244 278 211 159 131 209 259 105 154 120 164 212 230 226 261 204 217 237 224 250 186 251 13 101 353
287 286 284 280 277 275 275 270 266 258 256 251 242 229 208 192 222 322 332 317 149 213 286 249 226 175 167 175 243 149 165 175 179 172 215 238 248 258 245 273 275 186 95 279 327 346 229
282 281 281 278 273 272 269 266 261 258 250 246 238 225 221 216 205 349 349 233 218 241 242 0 347 14 221 140 239 210 150 158 214 196 176 203 281 222 216 207 210 208 160 162 202 202 269
282 279 278 273 273 267 263 263 257 252 242 241 227 202 201 200 163 73 275 226 216 194 266 317 326 309 277 222 200 166 206 202 195 194 198 178 241 267 209 211 164 243 166 188 111 25 75
281 278 276 273 270 262 262 259 254 251 241 232 192 191 203 128 137 146 239 229 232 247 334 7 260 313 347 1 11 45 187 208 220 198 197 240 281 228 257 231 252 189 171 103 12 144 233
275 273 272 269 267 261 260 257 249 243 233 224 191 203 172 131 121 192 227 220 235 268 300 317 335 312 318 2 17 5 305 309 214 214 189 201 217 259 344 213 228 216 188 118 132 143 165
271 270 268 266 264 257 254 252 242 235 227 217 186 209 175 142 192 202 225 211 253 294 260 251 301 266 309 346 294 228 246 285 39 316 230 201 206 231 247 250 243 209 194 170 160 221 198
270 268 265 263 261 255 251 247 235 227 218 165 195 149 161 161 210 217 217 217 243 255 297 281 257 226 192 203 344 294 262 289 68 54 76 339 239 231 295 259 240 206 213 180 141 118 185
267 266 263 261 259 250 249 241 232 224 217 204 142 172 171 205 234 209 215 225 226 220 249 255 281 302 345 280 230 265 307 307 0 58 143 200 268 234 230 269 183 203 197 200 181 157 188
266 264 261 259 253 249 245 239 229 222 212 203 171 217 194 196 210 209 206 215 216 223 222 230 247 235 241 282 269 238 244 275 1 17 47 19 282 296 251 223 223 237 228 225 213 201 187
265 263 261 255 250 246 240 234 226 218 207 215 174 181 184 115 180 205 221 222 224 206 222 220 248 272 209 234 253 314 322 300 263 273 121 71 290 321 280 223 226 230 226 223 245 247 242
263 262 258 253 248 242 237 232 223 213 198 209 196 227 181 195 179 194 217 213 222 210 250 232 246 241 248 249 256 252 235 258 242 252 89 115 344 338 284 209 217 249 222 217 208 201 194
263 259 254 248 242 238 233 225 217 215 205 213 176 149 186 200 202 214 171 204 210 218 223 244 229 238 250 212 175 199 12 11 158 256 186 157 123 282 274 316 223 256 183 214 232 238 221
260 256 250 245 238 231 226 224 221 220 207 212 182 183 193 225 218 213 206 200 199 222 233 235 243 245 293 261 202 250 300 274 227 206 198 128 131 129 294 291 288 300 245 206 206 244 226
257 251 246 239 233 228 224 221 215 207 210 209 204 120 165 220 221 201 202 189 184 207 227 245 252 274 348 223 181 200 215 230 190 116 138 90 101 158 137 305 286 330 242 213 137 288 358
258 252 247 240 233 226 222 218 212 210 208 198 173 173 130 230 210 184 192 191 189 176 210 196 222 236 183 189 223 211 222 194 220 166 176 123 141 172 163 188 246 265 278 271 220 260 326
261 255 246 238 234 227 218 212 208 205 202 194 147 177 166 191 289 204 185 161 175 197 189 193 161 266 93 187 165 211 179 200 155 222 165 162 164 199 136 179 269 215 281 96 200 270 275
260 250 239 232 227 216 213 209 203 201 196 188 194 170 171 186 276 314 285 226 189 195 194 190 193 177 184 153 200 123 205 71 140 232 192 224 186 182 197 213 229 187 257 218 176 243 359